When you browse on this site, cookies collect data to enhance your experience and personalize the content and advertising you see.
Visit our Privacy Policy to learn more. By continuing to use the site, you agree to this use of cookies and data.
  • In Czech Republic
  • List of Countries
  • For 7 days
  • Water Temperature
  • Weather Map
  • Weather Widgets
  • user-avatar
    Login

    Hourly Weather Le Pecq

    Today, 4 June, Thursday

    Time Temperature Precipitation Wind Pressure Humidity
    00:00 +14°C° 0.3 mm 4 mps 741 mmHg 79%
    01:00 +13°C° 0 mm 4 mps 741 mmHg 81%
    02:00 +13°C° 0 mm 3 mps 740 mmHg 83%
    03:00 +12°C° 0 mm 3 mps 740 mmHg 85%
    04:00 +12°C° 0 mm 4 mps 740 mmHg 84%
    05:00 +12°C° 0 mm 4 mps 740 mmHg 83%
    06:00 +12°C° 0 mm 4 mps 740 mmHg 82%
    07:00 +13°C° 0.1 mm 4 mps 740 mmHg 78%
    08:00 +14°C° 0.1 mm 4 mps 740 mmHg 74%
    09:00 +15°C° 0.1 mm 4 mps 741 mmHg 70%
    10:00 +15°C° 0.2 mm 4 mps 741 mmHg 71%
    11:00 +14°C° 0.2 mm 4 mps 741 mmHg 72%
    12:00 +14°C° 0.2 mm 4 mps 741 mmHg 73%
    13:00 +14°C° 0.2 mm 4 mps 741 mmHg 72%
    14:00 +15°C° 0.2 mm 5 mps 741 mmHg 71%
    15:00 +15°C° 0.2 mm 5 mps 741 mmHg 69%
    16:00 +14°C° 0.2 mm 5 mps 741 mmHg 71%
    17:00 +14°C° 0.2 mm 5 mps 741 mmHg 72%
    18:00 +13°C° 0.2 mm 4 mps 741 mmHg 74%
    19:00 +12°C° 0.1 mm 4 mps 741 mmHg 76%
    20:00 +11°C° 0.1 mm 3 mps 742 mmHg 78%
    21:00 +10°C° 0.1 mm 3 mps 742 mmHg 81%
    22:00 +10°C° 0 mm 3 mps 742 mmHg 82%
    23:00 +10°C° 0 mm 3 mps 742 mmHg 82%

    Tomorrow, 5 June, Friday

    Time Temperature Precipitation Wind Pressure Humidity
    00:00 +9°C° 0 mm 3 mps 742 mmHg 83%
    01:00 +9°C° 0 mm 3 mps 742 mmHg 84%
    02:00 +9°C° 0 mm 3 mps 742 mmHg 84%
    03:00 +8°C° 0 mm 4 mps 741 mmHg 85%
    04:00 +8°C° 0.1 mm 4 mps 741 mmHg 86%
    05:00 +9°C° 0.1 mm 5 mps 741 mmHg 87%
    06:00 +9°C° 0.1 mm 6 mps 740 mmHg 88%
    07:00 +10°C° 0.5 mm 6 mps 740 mmHg 88%
    08:00 +11°C° 0.5 mm 6 mps 740 mmHg 88%
    09:00 +11°C° 0.5 mm 6 mps 740 mmHg 88%
    10:00 +13°C° 0.2 mm 6 mps 740 mmHg 81%
    11:00 +15°C° 0.2 mm 7 mps 740 mmHg 74%
    12:00 +16°C° 0.2 mm 7 mps 740 mmHg 66%
    13:00 +15°C° 0.1 mm 7 mps 740 mmHg 70%
    14:00 +14°C° 0.1 mm 6 mps 740 mmHg 73%
    15:00 +13°C° 0.1 mm 6 mps 740 mmHg 76%
    16:00 +13°C° 0.6 mm 5 mps 740 mmHg 80%
    17:00 +12°C° 0.6 mm 4 mps 740 mmHg 84%
    18:00 +12°C° 0.6 mm 3 mps 740 mmHg 88%
    19:00 +11°C° 0.3 mm 3 mps 740 mmHg 88%
    20:00 +11°C° 0.3 mm 3 mps 741 mmHg 88%
    21:00 +11°C° 0.3 mm 3 mps 741 mmHg 88%
    22:00 +11°C° 0 mm 3 mps 741 mmHg 87%
    23:00 +11°C° 0 mm 4 mps 742 mmHg 87%

    Day after tomorrow, 6 June, Saturday

    Time Temperature Precipitation Wind Pressure Humidity
    00:00 +10°C° 0 mm 4 mps 742 mmHg 86%
    01:00 +10°C° 0 mm 4 mps 742 mmHg 86%
    02:00 +8°C° 0 mm 4 mps 742 mmHg 87%
    03:00 +8°C° 0 mm 3 mps 742 mmHg 87%
    04:00 +8°C° 0 mm 4 mps 742 mmHg 85%
    05:00 +8°C° 0 mm 4 mps 742 mmHg 83%
    06:00 +10°C° 0 mm 4 mps 742 mmHg 81%
    07:00 +10°C° 0.1 mm 5 mps 743 mmHg 73%
    08:00 +13°C° 0.1 mm 6 mps 743 mmHg 65%
    09:00 +14°C° 0.1 mm 6 mps 743 mmHg 57%
    10:00 +14°C° 0 mm 6 mps 743 mmHg 55%
    11:00 +15°C° 0 mm 6 mps 743 mmHg 53%
    12:00 +15°C° 0 mm 6 mps 744 mmHg 51%
    13:00 +15°C° 0 mm 6 mps 744 mmHg 51%
    14:00 +15°C° 0 mm 6 mps 744 mmHg 52%
    15:00 +15°C° 0 mm 6 mps 744 mmHg 52%
    16:00 +14°C° 0 mm 6 mps 744 mmHg 54%
    17:00 +14°C° 0 mm 6 mps 744 mmHg 55%
    18:00 +13°C° 0 mm 5 mps 744 mmHg 57%
    19:00 +12°C° 0 mm 5 mps 744 mmHg 60%
    20:00 +11°C° 0 mm 4 mps 745 mmHg 63%
    21:00 +8°C° 0 mm 4 mps 745 mmHg 66%
    22:00 +8°C° 0 mm 4 mps 745 mmHg 69%
    23:00 +7°C° 0 mm 4 mps 745 mmHg 72%

    7 June, Sunday

    Time Temperature Precipitation Wind Pressure Humidity
    00:00 +7°C° 0 mm 4 mps 745 mmHg 75%
    01:00 +7°C° 0 mm 4 mps 745 mmHg 77%
    02:00 +7°C° 0 mm 4 mps 746 mmHg 79%
    03:00 +7°C° 0 mm 4 mps 746 mmHg 81%
    04:00 +7°C° 0 mm 4 mps 746 mmHg 80%
    05:00 +8°C° 0 mm 4 mps 746 mmHg 79%
    06:00 +8°C° 0 mm 4 mps 746 mmHg 78%
    07:00 +11°C° 0 mm 4 mps 747 mmHg 73%
    08:00 +13°C° 0 mm 4 mps 747 mmHg 68%
    09:00 +15°C° 0 mm 4 mps 748 mmHg 64%
    10:00 +17°C° 0.1 mm 4 mps 748 mmHg 61%
    11:00 +18°C° 0.1 mm 4 mps 748 mmHg 57%
    12:00 +19°C° 0.1 mm 4 mps 748 mmHg 54%
    13:00 +19°C° 0.5 mm 4 mps 748 mmHg 57%
    14:00 +19°C° 0.5 mm 4 mps 748 mmHg 60%
    15:00 +18°C° 0.5 mm 4 mps 748 mmHg 63%
    16:00 +18°C° 0.2 mm 4 mps 748 mmHg 65%
    17:00 +18°C° 0.2 mm 3 mps 748 mmHg 68%
    18:00 +17°C° 0.2 mm 2 mps 749 mmHg 70%
    19:00 +16°C° 0 mm 2 mps 749 mmHg 73%
    20:00 +15°C° 0 mm 2 mps 749 mmHg 76%
    21:00 +14°C° 0 mm 1 mps 750 mmHg 79%
    22:00 +13°C° 0 mm 1 mps 750 mmHg 80%
    23:00 +13°C° 0 mm 1 mps 750 mmHg 81%

    8 June, Monday

    Time Temperature Precipitation Wind Pressure Humidity
    00:00 +12°C° 0 mm 1 mps 750 mmHg 83%
    01:00 +12°C° 0 mm 1 mps 750 mmHg 84%
    02:00 +11°C° 0 mm 1 mps 750 mmHg 84%
    03:00 +11°C° 0 mm 1 mps 750 mmHg 85%
    04:00 +12°C° 0 mm 1 mps 750 mmHg 83%
    05:00 +12°C° 0 mm 1 mps 751 mmHg 81%
    06:00 +13°C° 0 mm 1 mps 751 mmHg 80%
    07:00 +15°C° 0 mm 1 mps 751 mmHg 72%
    08:00 +16°C° 0 mm 1 mps 752 mmHg 65%
    09:00 +19°C° 0 mm 1 mps 752 mmHg 57%
    10:00 +19°C° 0 mm 2 mps 752 mmHg 54%
    11:00 +20°C° 0 mm 2 mps 752 mmHg 50%
    12:00 +21°C° 0 mm 2 mps 752 mmHg 47%
    13:00 +21°C° 0.1 mm 3 mps 752 mmHg 48%
    14:00 +21°C° 0.1 mm 3 mps 752 mmHg 50%
    15:00 +21°C° 0.1 mm 3 mps 752 mmHg 51%
    16:00 +20°C° 0.3 mm 4 mps 752 mmHg 58%
    17:00 +19°C° 0.3 mm 4 mps 752 mmHg 65%
    18:00 +18°C° 0.3 mm 4 mps 752 mmHg 72%
    19:00 +17°C° 0 mm 4 mps 753 mmHg 75%
    20:00 +14°C° 0 mm 4 mps 753 mmHg 79%
    21:00 +13°C° 0 mm 4 mps 754 mmHg 82%
    22:00 +12°C° 0 mm 4 mps 754 mmHg 82%
    23:00 +11°C° 0 mm 4 mps 754 mmHg 82%

    9 June, Tuesday

    Time Temperature Precipitation Wind Pressure Humidity
    00:00 +11°C° 0 mm 3 mps 754 mmHg 82%
    01:00 +10°C° 0 mm 3 mps 755 mmHg 83%
    02:00 +9°C° 0 mm 3 mps 755 mmHg 84%
    03:00 +9°C° 0 mm 3 mps 755 mmHg 86%
    04:00 +9°C° 0 mm 3 mps 755 mmHg 83%
    05:00 +9°C° 0 mm 3 mps 755 mmHg 81%
    06:00 +10°C° 0 mm 3 mps 756 mmHg 78%
    07:00 +11°C° 0 mm 3 mps 756 mmHg 71%
    08:00 +12°C° 0 mm 4 mps 756 mmHg 65%
    09:00 +13°C° 0 mm 4 mps 756 mmHg 58%
    10:00 +14°C° 0 mm 4 mps 756 mmHg 55%
    11:00 +15°C° 0 mm 4 mps 756 mmHg 52%
    12:00 +17°C° 0 mm 4 mps 756 mmHg 49%
    13:00 +17°C° 0 mm 4 mps 756 mmHg 50%
    14:00 +17°C° 0 mm 4 mps 756 mmHg 50%
    15:00 +17°C° 0 mm 4 mps 756 mmHg 51%
    16:00 +17°C° 0 mm 4 mps 756 mmHg 53%
    17:00 +16°C° 0 mm 3 mps 756 mmHg 56%
    18:00 +16°C° 0 mm 3 mps 756 mmHg 58%
    19:00 +14°C° 0 mm 3 mps 756 mmHg 63%
    20:00 +13°C° 0 mm 2 mps 756 mmHg 67%
    21:00 +12°C° 0 mm 2 mps 756 mmHg 71%
    22:00 +10°C° 0 mm 2 mps 756 mmHg 74%
    23:00 +10°C° 0 mm 2 mps 756 mmHg 76%
    Show more